owner,sensor,date,latitude,longitude,air_temperature,qcFlag 
DISL,ioos:station:DISL:MHPA:1,2017-03-01T00:00:00Z,30.6671,-87.9365,22.05,1111122 
DISL,ioos:station:DISL:MHPA:1,2017-03-01T00:30:00Z,30.6671,-87.9365,21.82,1111122 
DISL,ioos:station:DISL:MHPA:1,2017-03-01T01:00:00Z,30.6671,-87.9365,21.85,1111122 
DISL,ioos:station:DISL:MHPA:1,2017-03-01T01:30:00Z,30.6671,-87.9365,21.95,1111122 
DISL,ioos:station:DISL:MHPA:1,2017-03-01T02:00:00Z,30.6671,-87.9365,22.05,1111122 
DISL,ioos:station:DISL:MHPA:1,2017-03-01T02:30:00Z,30.6671,-87.9365,21.75,1111122 
DISL,ioos:station:DISL:MHPA:1,2017-03-01T03:00:00Z,30.6671,-87.9365,21.34,1111122 
DISL,ioos:station:DISL:MHPA:1,2017-03-01T03:30:00Z,30.6671,-87.9365,21.24,1111122 
DISL,ioos:station:DISL:MHPA:1,2017-03-01T04:00:00Z,30.6671,-87.9365,21.24,1111122 
DISL,ioos:station:DISL:MHPA:1,2017-03-01T04:30:00Z,30.6671,-87.9365,21.08,1111122 
DISL,ioos:station:DISL:MHPA:1,2017-03-01T05:00:00Z,30.6671,-87.9365,20.97,1111122 
DISL,ioos:station:DISL:MHPA:1,2017-03-01T05:30:00Z,30.6671,-87.9365,20.67,1111122 
DISL,ioos:station:DISL:MHPA:1,2017-03-01T06:00:00Z,30.6671,-87.9365,20.77,1111122 
DISL,ioos:station:DISL:MHPA:1,2017-03-01T06:30:00Z,30.6671,-87.9365,21.14,1111122 
DISL,ioos:station:DISL:MHPA:1,2017-03-01T07:00:00Z,30.6671,-87.9365,20.94,1111122 
DISL,ioos:station:DISL:MHPA:1,2017-03-01T07:30:00Z,30.6671,-87.9365,20.64,1111122 
DISL,ioos:station:DISL:MHPA:1,2017-03-01T08:00:00Z,30.6671,-87.9365,20.77,1111122 
DISL,ioos:station:DISL:MHPA:1,2017-03-01T08:30:00Z,30.6671,-87.9365,20.98,1111122 
DISL,ioos:station:DISL:MHPA:1,2017-03-01T09:00:00Z,30.6671,-87.9365,20.88,1111122 
DISL,ioos:station:DISL:MHPA:1,2017-03-01T09:30:00Z,30.6671,-87.9365,20.88,1111122 
DISL,ioos:station:DISL:MHPA:1,2017-03-01T10:00:00Z,30.6671,-87.9365,20.71,1111122 
DISL,ioos:station:DISL:MHPA:1,2017-03-01T10:30:00Z,30.6671,-87.9365,20.5,1111122 
DISL,ioos:station:DISL:MHPA:1,2017-03-01T11:00:00Z,30.6671,-87.9365,20.53,1111122 
DISL,ioos:station:DISL:MHPA:1,2017-03-01T11:30:00Z,30.6671,-87.9365,20.5,1111122 
DISL,ioos:station:DISL:MHPA:1,2017-03-01T12:00:00Z,30.6671,-87.9365,20.2,1111122 
DISL,ioos:station:DISL:MHPA:1,2017-03-01T12:30:00Z,30.6671,-87.9365,20.64,1111122 
DISL,ioos:station:DISL:MHPA:1,2017-03-01T13:00:00Z,30.6671,-87.9365,20.64,1111122 
DISL,ioos:station:DISL:MHPA:1,2017-03-01T13:30:00Z,30.6671,-87.9365,20.43,1111122 
DISL,ioos:station:DISL:MHPA:1,2017-03-01T14:00:00Z,30.6671,-87.9365,20.44,1111122 
DISL,ioos:station:DISL:MHPA:1,2017-03-01T14:30:00Z,30.6671,-87.9365,20.57,1111122 
DISL,ioos:station:DISL:MHPA:1,2017-03-01T15:00:00Z,30.6671,-87.9365,20.77,1111122 
DISL,ioos:station:DISL:MHPA:1,2017-03-01T15:30:00Z,30.6671,-87.9365,20.7,1111122 
DISL,ioos:station:DISL:MHPA:1,2017-03-01T16:00:00Z,30.6671,-87.9365,20.76,1111122 
DISL,ioos:station:DISL:MHPA:1,2017-03-01T16:30:00Z,30.6671,-87.9365,21.2,1111122 
DISL,ioos:station:DISL:MHPA:1,2017-03-01T17:00:00Z,30.6671,-87.9365,21.63,1111122 
DISL,ioos:station:DISL:MHPA:1,2017-03-01T17:30:00Z,30.6671,-87.9365,21.69,1111122 
DISL,ioos:station:DISL:MHPA:1,2017-03-01T18:00:00Z,30.6671,-87.9365,21.53,1111122 
DISL,ioos:station:DISL:MHPA:1,2017-03-01T18:30:00Z,30.6671,-87.9365,21.46,1111122 
DISL,ioos:station:DISL:MHPA:1,2017-03-01T19:00:00Z,30.6671,-87.9365,21.36,1111122 
DISL,ioos:station:DISL:MHPA:1,2017-03-01T19:30:00Z,30.6671,-87.9365,21.4,1111122 
DISL,ioos:station:DISL:MHPA:1,2017-03-01T20:00:00Z,30.6671,-87.9365,21.36,1111122 
DISL,ioos:station:DISL:MHPA:1,2017-03-01T20:30:00Z,30.6671,-87.9365,21.46,1111122 
DISL,ioos:station:DISL:MHPA:1,2017-03-01T21:00:00Z,30.6671,-87.9365,21.46,1111122 
DISL,ioos:station:DISL:MHPA:1,2017-03-01T21:30:00Z,30.6671,-87.9365,21.4,1111122 
DISL,ioos:station:DISL:MHPA:1,2017-03-01T22:00:00Z,30.6671,-87.9365,21.33,1111122 
DISL,ioos:station:DISL:MHPA:1,2017-03-01T22:30:00Z,30.6671,-87.9365,21.33,1111122 
DISL,ioos:station:DISL:MHPA:1,2017-03-01T23:00:00Z,30.6671,-87.9365,21.28,1111122 
DISL,ioos:station:DISL:MHPA:1,2017-03-01T23:30:00Z,30.6671,-87.9365,21.21,1111122 
DISL,ioos:station:DISL:MHPA:1,2017-03-02T00:00:00Z,30.6671,-87.9365,21.21,1111122 
DISL,ioos:station:DISL:MHPA:1,2017-03-02T00:30:00Z,30.6671,-87.9365,21.11,1111122 
DISL,ioos:station:DISL:MHPA:1,2017-03-02T01:00:00Z,30.6671,-87.9365,21.01,1111122 
DISL,ioos:station:DISL:MHPA:1,2017-03-02T01:30:00Z,30.6671,-87.9365,20.97,1111122 
DISL,ioos:station:DISL:MHPA:1,2017-03-02T02:00:00Z,30.6671,-87.9365,20.91,1111122 
DISL,ioos:station:DISL:MHPA:1,2017-03-02T02:30:00Z,30.6671,-87.9365,21.24,1111122 
DISL,ioos:station:DISL:MHPA:1,2017-03-02T03:00:00Z,30.6671,-87.9365,21.55,1111122 
DISL,ioos:station:DISL:MHPA:1,2017-03-02T03:30:00Z,30.6671,-87.9365,18.31,1111122 
DISL,ioos:station:DISL:MHPA:1,2017-03-02T04:00:00Z,30.6671,-87.9365,18.29,1111122 
DISL,ioos:station:DISL:MHPA:1,2017-03-02T04:30:00Z,30.6671,-87.9365,18.22,1111122 
DISL,ioos:station:DISL:MHPA:1,2017-03-02T05:00:00Z,30.6671,-87.9365,18.26,1111122 
DISL,ioos:station:DISL:MHPA:1,2017-03-02T05:30:00Z,30.6671,-87.9365,17.82,1111122 
DISL,ioos:station:DISL:MHPA:1,2017-03-02T06:00:00Z,30.6671,-87.9365,17.75,1111122 
DISL,ioos:station:DISL:MHPA:1,2017-03-02T06:30:00Z,30.6671,-87.9365,17.49,1111122 
DISL,ioos:station:DISL:MHPA:1,2017-03-02T07:00:00Z,30.6671,-87.9365,16.98,1111122 
DISL,ioos:station:DISL:MHPA:1,2017-03-02T07:30:00Z,30.6671,-87.9365,16.31,1111122 
DISL,ioos:station:DISL:MHPA:1,2017-03-02T08:00:00Z,30.6671,-87.9365,16.11,1111122 
DISL,ioos:station:DISL:MHPA:1,2017-03-02T08:30:00Z,30.6671,-87.9365,16.15,1111122 
DISL,ioos:station:DISL:MHPA:1,2017-03-02T09:00:00Z,30.6671,-87.9365,15.64,1111122 
DISL,ioos:station:DISL:MHPA:1,2017-03-02T09:30:00Z,30.6671,-87.9365,15.34,1111122 
DISL,ioos:station:DISL:MHPA:1,2017-03-02T10:00:00Z,30.6671,-87.9365,15.03,1111122 
DISL,ioos:station:DISL:MHPA:1,2017-03-02T10:30:00Z,30.6671,-87.9365,14.83,1111122 
DISL,ioos:station:DISL:MHPA:1,2017-03-02T11:00:00Z,30.6671,-87.9365,14.7,1111122 
DISL,ioos:station:DISL:MHPA:1,2017-03-02T11:30:00Z,30.6671,-87.9365,14.32,1111122 
DISL,ioos:station:DISL:MHPA:1,2017-03-02T12:00:00Z,30.6671,-87.9365,13.89,1111122 
DISL,ioos:station:DISL:MHPA:1,2017-03-02T12:30:00Z,30.6671,-87.9365,13.28,1111122 
DISL,ioos:station:DISL:MHPA:1,2017-03-02T13:00:00Z,30.6671,-87.9365,12.68,1111122 
DISL,ioos:station:DISL:MHPA:1,2017-03-02T13:30:00Z,30.6671,-87.9365,12.35,1111122 
DISL,ioos:station:DISL:MHPA:1,2017-03-02T14:00:00Z,30.6671,-87.9365,12.72,1111122 
DISL,ioos:station:DISL:MHPA:1,2017-03-02T14:30:00Z,30.6671,-87.9365,12.78,1111122 
DISL,ioos:station:DISL:MHPA:1,2017-03-02T15:00:00Z,30.6671,-87.9365,12.94,1111122 
DISL,ioos:station:DISL:MHPA:1,2017-03-02T15:30:00Z,30.6671,-87.9365,13.45,1111122 
DISL,ioos:station:DISL:MHPA:1,2017-03-02T16:00:00Z,30.6671,-87.9365,14.16,1111122 
DISL,ioos:station:DISL:MHPA:1,2017-03-02T16:30:00Z,30.6671,-87.9365,14.09,1111122 
DISL,ioos:station:DISL:MHPA:1,2017-03-02T17:00:00Z,30.6671,-87.9365,15.1,1111122 
DISL,ioos:station:DISL:MHPA:1,2017-03-02T17:30:00Z,30.6671,-87.9365,15.02,1111122 
DISL,ioos:station:DISL:MHPA:1,2017-03-02T18:00:00Z,30.6671,-87.9365,15.32,1111122 
DISL,ioos:station:DISL:MHPA:1,2017-03-02T18:30:00Z,30.6671,-87.9365,15.76,1111122 
DISL,ioos:station:DISL:MHPA:1,2017-03-02T19:00:00Z,30.6671,-87.9365,16.54,1111122 
DISL,ioos:station:DISL:MHPA:1,2017-03-02T19:30:00Z,30.6671,-87.9365,17.05,1111122 
DISL,ioos:station:DISL:MHPA:1,2017-03-02T20:00:00Z,30.6671,-87.9365,17.29,1111122 
DISL,ioos:station:DISL:MHPA:1,2017-03-02T20:30:00Z,30.6671,-87.9365,17.41,1111122 
DISL,ioos:station:DISL:MHPA:1,2017-03-02T21:00:00Z,30.6671,-87.9365,17.54,1111122 
DISL,ioos:station:DISL:MHPA:1,2017-03-02T21:30:00Z,30.6671,-87.9365,18.07,1111122 
DISL,ioos:station:DISL:MHPA:1,2017-03-02T22:00:00Z,30.6671,-87.9365,17.9,1111122 
DISL,ioos:station:DISL:MHPA:1,2017-03-02T22:30:00Z,30.6671,-87.9365,17.6,1111122 
DISL,ioos:station:DISL:MHPA:1,2017-03-02T23:00:00Z,30.6671,-87.9365,17.16,1111122 
DISL,ioos:station:DISL:MHPA:1,2017-03-02T23:30:00Z,30.6671,-87.9365,16.53,1111122 
DISL,ioos:station:DISL:MHPA:1,2017-03-03T00:00:00Z,30.6671,-87.9365,15.59,1111122 
DISL,ioos:station:DISL:MHPA:1,2017-03-03T00:30:00Z,30.6671,-87.9365,14.73,1111122 
DISL,ioos:station:DISL:MHPA:1,2017-03-03T01:00:00Z,30.6671,-87.9365,13.79,1111122 
DISL,ioos:station:DISL:MHPA:1,2017-03-03T01:30:00Z,30.6671,-87.9365,13.46,1111122 
DISL,ioos:station:DISL:MHPA:1,2017-03-03T02:00:00Z,30.6671,-87.9365,13.3,1111122 
DISL,ioos:station:DISL:MHPA:1,2017-03-03T02:30:00Z,30.6671,-87.9365,12.76,1111122 
DISL,ioos:station:DISL:MHPA:1,2017-03-03T03:00:00Z,30.6671,-87.9365,12.25,1111122 
DISL,ioos:station:DISL:MHPA:1,2017-03-03T03:30:00Z,30.6671,-87.9365,12.08,1111122 
DISL,ioos:station:DISL:MHPA:1,2017-03-03T04:00:00Z,30.6671,-87.9365,11.61,1111122 
DISL,ioos:station:DISL:MHPA:1,2017-03-03T04:30:00Z,30.6671,-87.9365,11.01,1111122 
DISL,ioos:station:DISL:MHPA:1,2017-03-03T05:00:00Z,30.6671,-87.9365,10.3,1111122 
DISL,ioos:station:DISL:MHPA:1,2017-03-03T05:30:00Z,30.6671,-87.9365,10.24,1111122 
DISL,ioos:station:DISL:MHPA:1,2017-03-03T06:00:00Z,30.6671,-87.9365,9.86,1111122 
DISL,ioos:station:DISL:MHPA:1,2017-03-03T06:30:00Z,30.6671,-87.9365,9.7,1111122 
DISL,ioos:station:DISL:MHPA:1,2017-03-03T07:00:00Z,30.6671,-87.9365,9.63,1111122 
DISL,ioos:station:DISL:MHPA:1,2017-03-03T07:30:00Z,30.6671,-87.9365,9.74,1111122 
DISL,ioos:station:DISL:MHPA:1,2017-03-03T08:00:00Z,30.6671,-87.9365,9.6,1111122 
DISL,ioos:station:DISL:MHPA:1,2017-03-03T08:30:00Z,30.6671,-87.9365,9.23,1111122 
DISL,ioos:station:DISL:MHPA:1,2017-03-03T09:00:00Z,30.6671,-87.9365,8.66,1111122 
DISL,ioos:station:DISL:MHPA:1,2017-03-03T09:30:00Z,30.6671,-87.9365,8.19,1111122 
DISL,ioos:station:DISL:MHPA:1,2017-03-03T10:00:00Z,30.6671,-87.9365,8.09,1111122 
DISL,ioos:station:DISL:MHPA:1,2017-03-03T10:30:00Z,30.6671,-87.9365,7.548,1111122 
DISL,ioos:station:DISL:MHPA:1,2017-03-03T11:00:00Z,30.6671,-87.9365,7.075,1111122 
DISL,ioos:station:DISL:MHPA:1,2017-03-03T11:30:00Z,30.6671,-87.9365,6.77,1111122 
DISL,ioos:station:DISL:MHPA:1,2017-03-03T12:00:00Z,30.6671,-87.9365,6.337,1111122 
DISL,ioos:station:DISL:MHPA:1,2017-03-03T12:30:00Z,30.6671,-87.9365,6.541,1111122 
DISL,ioos:station:DISL:MHPA:1,2017-03-03T13:00:00Z,30.6671,-87.9365,6.846,1111122 
DISL,ioos:station:DISL:MHPA:1,2017-03-03T13:30:00Z,30.6671,-87.9365,7.819,1111122 
DISL,ioos:station:DISL:MHPA:1,2017-03-03T14:00:00Z,30.6671,-87.9365,9.26,1111122 
DISL,ioos:station:DISL:MHPA:1,2017-03-03T14:30:00Z,30.6671,-87.9365,11.01,1111122 
DISL,ioos:station:DISL:MHPA:1,2017-03-03T15:00:00Z,30.6671,-87.9365,13.0,1111122 
DISL,ioos:station:DISL:MHPA:1,2017-03-03T15:30:00Z,30.6671,-87.9365,13.73,1111122 
DISL,ioos:station:DISL:MHPA:1,2017-03-03T16:00:00Z,30.6671,-87.9365,15.64,1111122 
DISL,ioos:station:DISL:MHPA:1,2017-03-03T16:30:00Z,30.6671,-87.9365,16.58,1111122 
DISL,ioos:station:DISL:MHPA:1,2017-03-03T17:00:00Z,30.6671,-87.9365,17.42,1111122 
DISL,ioos:station:DISL:MHPA:1,2017-03-03T17:30:00Z,30.6671,-87.9365,17.72,1111122 
DISL,ioos:station:DISL:MHPA:1,2017-03-03T18:00:00Z,30.6671,-87.9365,18.28,1111122 
DISL,ioos:station:DISL:MHPA:1,2017-03-03T18:30:00Z,30.6671,-87.9365,18.68,1111122 
DISL,ioos:station:DISL:MHPA:1,2017-03-03T19:00:00Z,30.6671,-87.9365,18.86,1111122 
DISL,ioos:station:DISL:MHPA:1,2017-03-03T19:30:00Z,30.6671,-87.9365,19.3,1111122 
DISL,ioos:station:DISL:MHPA:1,2017-03-03T20:00:00Z,30.6671,-87.9365,19.57,1111122 
DISL,ioos:station:DISL:MHPA:1,2017-03-03T20:30:00Z,30.6671,-87.9365,19.66,1111122 
DISL,ioos:station:DISL:MHPA:1,2017-03-03T21:00:00Z,30.6671,-87.9365,19.69,1111122 
DISL,ioos:station:DISL:MHPA:1,2017-03-03T21:30:00Z,30.6671,-87.9365,19.82,1111122 
DISL,ioos:station:DISL:MHPA:1,2017-03-03T22:00:00Z,30.6671,-87.9365,19.79,1111122 
DISL,ioos:station:DISL:MHPA:1,2017-03-03T22:30:00Z,30.6671,-87.9365,19.52,1111122 
DISL,ioos:station:DISL:MHPA:1,2017-03-03T23:00:00Z,30.6671,-87.9365,18.91,1111122 
DISL,ioos:station:DISL:MHPA:1,2017-03-03T23:30:00Z,30.6671,-87.9365,18.37,1111122 
DISL,ioos:station:DISL:MHPA:1,2017-03-04T00:00:00Z,30.6671,-87.9365,17.41,1111122 
DISL,ioos:station:DISL:MHPA:1,2017-03-04T00:30:00Z,30.6671,-87.9365,16.27,1111122 
DISL,ioos:station:DISL:MHPA:1,2017-03-04T01:00:00Z,30.6671,-87.9365,15.57,1111122 
DISL,ioos:station:DISL:MHPA:1,2017-03-04T01:30:00Z,30.6671,-87.9365,14.9,1111122 
DISL,ioos:station:DISL:MHPA:1,2017-03-04T02:00:00Z,30.6671,-87.9365,14.41,1111122 
DISL,ioos:station:DISL:MHPA:1,2017-03-04T02:30:00Z,30.6671,-87.9365,13.8,1111122 
DISL,ioos:station:DISL:MHPA:1,2017-03-04T03:00:00Z,30.6671,-87.9365,13.77,1111122 
DISL,ioos:station:DISL:MHPA:1,2017-03-04T03:30:00Z,30.6671,-87.9365,13.27,1111122 
DISL,ioos:station:DISL:MHPA:1,2017-03-04T04:00:00Z,30.6671,-87.9365,12.83,1111122 
DISL,ioos:station:DISL:MHPA:1,2017-03-04T04:30:00Z,30.6671,-87.9365,12.29,1111122 
DISL,ioos:station:DISL:MHPA:1,2017-03-04T05:00:00Z,30.6671,-87.9365,11.92,1111122 
DISL,ioos:station:DISL:MHPA:1,2017-03-04T05:30:00Z,30.6671,-87.9365,11.76,1111122 
DISL,ioos:station:DISL:MHPA:1,2017-03-04T06:00:00Z,30.6671,-87.9365,11.52,1111122 
DISL,ioos:station:DISL:MHPA:1,2017-03-04T06:30:00Z,30.6671,-87.9365,11.12,1111122 
DISL,ioos:station:DISL:MHPA:1,2017-03-04T07:00:00Z,30.6671,-87.9365,10.64,1111122 
DISL,ioos:station:DISL:MHPA:1,2017-03-04T07:30:00Z,30.6671,-87.9365,10.47,1111122 
DISL,ioos:station:DISL:MHPA:1,2017-03-04T08:00:00Z,30.6671,-87.9365,10.2,1111122 
DISL,ioos:station:DISL:MHPA:1,2017-03-04T08:30:00Z,30.6671,-87.9365,10.2,1111122 
DISL,ioos:station:DISL:MHPA:1,2017-03-04T09:00:00Z,30.6671,-87.9365,9.8,1111122 
DISL,ioos:station:DISL:MHPA:1,2017-03-04T09:30:00Z,30.6671,-87.9365,9.36,1111122 
DISL,ioos:station:DISL:MHPA:1,2017-03-04T10:00:00Z,30.6671,-87.9365,9.06,1111122 
DISL,ioos:station:DISL:MHPA:1,2017-03-04T10:30:00Z,30.6671,-87.9365,8.89,1111122 
DISL,ioos:station:DISL:MHPA:1,2017-03-04T11:00:00Z,30.6671,-87.9365,8.39,1111122 
DISL,ioos:station:DISL:MHPA:1,2017-03-04T11:30:00Z,30.6671,-87.9365,7.851,1111122 
DISL,ioos:station:DISL:MHPA:1,2017-03-04T12:00:00Z,30.6671,-87.9365,7.683,1111122 
DISL,ioos:station:DISL:MHPA:1,2017-03-04T12:30:00Z,30.6671,-87.9365,7.751,1111122 
DISL,ioos:station:DISL:MHPA:1,2017-03-04T13:00:00Z,30.6671,-87.9365,8.6,1111122 
DISL,ioos:station:DISL:MHPA:1,2017-03-04T13:30:00Z,30.6671,-87.9365,9.47,1111122 
DISL,ioos:station:DISL:MHPA:1,2017-03-04T14:00:00Z,30.6671,-87.9365,10.14,1111122 
DISL,ioos:station:DISL:MHPA:1,2017-03-04T14:30:00Z,30.6671,-87.9365,11.25,1111122 
DISL,ioos:station:DISL:MHPA:1,2017-03-04T15:00:00Z,30.6671,-87.9365,12.25,1111122 
DISL,ioos:station:DISL:MHPA:1,2017-03-04T15:30:00Z,30.6671,-87.9365,12.82,1111122 
DISL,ioos:station:DISL:MHPA:1,2017-03-04T16:00:00Z,30.6671,-87.9365,13.82,1111122 
DISL,ioos:station:DISL:MHPA:1,2017-03-04T16:30:00Z,30.6671,-87.9365,14.26,1111122 
DISL,ioos:station:DISL:MHPA:1,2017-03-04T17:00:00Z,30.6671,-87.9365,15.2,1111122 
DISL,ioos:station:DISL:MHPA:1,2017-03-04T17:30:00Z,30.6671,-87.9365,16.0,1111122 
DISL,ioos:station:DISL:MHPA:1,2017-03-04T18:00:00Z,30.6671,-87.9365,14.87,1111122 
DISL,ioos:station:DISL:MHPA:1,2017-03-04T18:30:00Z,30.6671,-87.9365,15.01,1111122 
DISL,ioos:station:DISL:MHPA:1,2017-03-04T19:00:00Z,30.6671,-87.9365,15.56,1111122 
DISL,ioos:station:DISL:MHPA:1,2017-03-04T19:30:00Z,30.6671,-87.9365,16.07,1111122 
DISL,ioos:station:DISL:MHPA:1,2017-03-04T20:00:00Z,30.6671,-87.9365,16.68,1111122 
DISL,ioos:station:DISL:MHPA:1,2017-03-04T20:30:00Z,30.6671,-87.9365,16.87,1111122 
DISL,ioos:station:DISL:MHPA:1,2017-03-04T21:00:00Z,30.6671,-87.9365,17.31,1111122 
DISL,ioos:station:DISL:MHPA:1,2017-03-04T21:30:00Z,30.6671,-87.9365,16.35,1111122 
DISL,ioos:station:DISL:MHPA:1,2017-03-04T22:00:00Z,30.6671,-87.9365,16.47,1111122 
DISL,ioos:station:DISL:MHPA:1,2017-03-04T22:30:00Z,30.6671,-87.9365,16.5,1111122 
DISL,ioos:station:DISL:MHPA:1,2017-03-04T23:00:00Z,30.6671,-87.9365,16.54,1111122 
DISL,ioos:station:DISL:MHPA:1,2017-03-04T23:30:00Z,30.6671,-87.9365,16.78,1111122 
DISL,ioos:station:DISL:MHPA:1,2017-03-05T00:00:00Z,30.6671,-87.9365,16.62,1111122 
DISL,ioos:station:DISL:MHPA:1,2017-03-05T00:30:00Z,30.6671,-87.9365,16.59,1111122 
DISL,ioos:station:DISL:MHPA:1,2017-03-05T01:00:00Z,30.6671,-87.9365,16.62,1111122 
DISL,ioos:station:DISL:MHPA:1,2017-03-05T01:30:00Z,30.6671,-87.9365,16.39,1111122 
DISL,ioos:station:DISL:MHPA:1,2017-03-05T02:00:00Z,30.6671,-87.9365,15.2,1111122 
DISL,ioos:station:DISL:MHPA:1,2017-03-05T02:30:00Z,30.6671,-87.9365,14.33,1111122 
DISL,ioos:station:DISL:MHPA:1,2017-03-05T03:00:00Z,30.6671,-87.9365,14.21,1111122 
DISL,ioos:station:DISL:MHPA:1,2017-03-05T03:30:00Z,30.6671,-87.9365,13.16,1111122 
DISL,ioos:station:DISL:MHPA:1,2017-03-05T04:00:00Z,30.6671,-87.9365,12.52,1111122 
DISL,ioos:station:DISL:MHPA:1,2017-03-05T04:30:00Z,30.6671,-87.9365,12.49,1111122 
DISL,ioos:station:DISL:MHPA:1,2017-03-05T05:00:00Z,30.6671,-87.9365,11.65,1111122 
DISL,ioos:station:DISL:MHPA:1,2017-03-05T05:30:00Z,30.6671,-87.9365,11.95,1111122 
DISL,ioos:station:DISL:MHPA:1,2017-03-05T06:00:00Z,30.6671,-87.9365,12.97,1111122 
DISL,ioos:station:DISL:MHPA:1,2017-03-05T06:30:00Z,30.6671,-87.9365,12.05,1111122 
DISL,ioos:station:DISL:MHPA:1,2017-03-05T07:00:00Z,30.6671,-87.9365,11.92,1111122 
DISL,ioos:station:DISL:MHPA:1,2017-03-05T07:30:00Z,30.6671,-87.9365,12.15,1111122 
DISL,ioos:station:DISL:MHPA:1,2017-03-05T08:00:00Z,30.6671,-87.9365,13.84,1111122 
DISL,ioos:station:DISL:MHPA:1,2017-03-05T08:30:00Z,30.6671,-87.9365,14.18,1111122 
DISL,ioos:station:DISL:MHPA:1,2017-03-05T09:00:00Z,30.6671,-87.9365,13.9,1111122 
DISL,ioos:station:DISL:MHPA:1,2017-03-05T09:30:00Z,30.6671,-87.9365,13.8,1111122 
DISL,ioos:station:DISL:MHPA:1,2017-03-05T10:00:00Z,30.6671,-87.9365,13.6,1111122 
DISL,ioos:station:DISL:MHPA:1,2017-03-05T10:30:00Z,30.6671,-87.9365,13.53,1111122 
DISL,ioos:station:DISL:MHPA:1,2017-03-05T11:00:00Z,30.6671,-87.9365,13.3,1111122 
DISL,ioos:station:DISL:MHPA:1,2017-03-05T11:30:00Z,30.6671,-87.9365,13.19,1111122 
DISL,ioos:station:DISL:MHPA:1,2017-03-05T12:00:00Z,30.6671,-87.9365,13.3,1111122 
DISL,ioos:station:DISL:MHPA:1,2017-03-05T12:30:00Z,30.6671,-87.9365,13.23,1111122 
DISL,ioos:station:DISL:MHPA:1,2017-03-05T13:00:00Z,30.6671,-87.9365,13.73,1111122 
DISL,ioos:station:DISL:MHPA:1,2017-03-05T13:30:00Z,30.6671,-87.9365,14.31,1111122 
DISL,ioos:station:DISL:MHPA:1,2017-03-05T14:00:00Z,30.6671,-87.9365,14.44,1111122 
DISL,ioos:station:DISL:MHPA:1,2017-03-05T14:30:00Z,30.6671,-87.9365,14.8,1111122 
DISL,ioos:station:DISL:MHPA:1,2017-03-05T15:00:00Z,30.6671,-87.9365,15.24,1111122 
DISL,ioos:station:DISL:MHPA:1,2017-03-05T15:30:00Z,30.6671,-87.9365,15.98,1111122 
DISL,ioos:station:DISL:MHPA:1,2017-03-05T16:00:00Z,30.6671,-87.9365,16.52,1111122 
DISL,ioos:station:DISL:MHPA:1,2017-03-05T16:30:00Z,30.6671,-87.9365,17.29,1111122 
DISL,ioos:station:DISL:MHPA:1,2017-03-05T17:00:00Z,30.6671,-87.9365,18.33,1111122 
DISL,ioos:station:DISL:MHPA:1,2017-03-05T17:30:00Z,30.6671,-87.9365,19.24,1111122 
DISL,ioos:station:DISL:MHPA:1,2017-03-05T18:00:00Z,30.6671,-87.9365,19.69,1111122 
DISL,ioos:station:DISL:MHPA:1,2017-03-05T18:30:00Z,30.6671,-87.9365,19.96,1111122 
DISL,ioos:station:DISL:MHPA:1,2017-03-05T19:00:00Z,30.6671,-87.9365,19.79,1111122 
DISL,ioos:station:DISL:MHPA:1,2017-03-05T19:30:00Z,30.6671,-87.9365,19.99,1111122 
DISL,ioos:station:DISL:MHPA:1,2017-03-05T20:00:00Z,30.6671,-87.9365,20.33,1111122 
DISL,ioos:station:DISL:MHPA:1,2017-03-05T20:30:00Z,30.6671,-87.9365,19.93,1111122 
DISL,ioos:station:DISL:MHPA:1,2017-03-05T21:00:00Z,30.6671,-87.9365,20.23,1111122 
DISL,ioos:station:DISL:MHPA:1,2017-03-05T21:30:00Z,30.6671,-87.9365,19.93,1111122 
DISL,ioos:station:DISL:MHPA:1,2017-03-05T22:00:00Z,30.6671,-87.9365,19.42,1111122 
DISL,ioos:station:DISL:MHPA:1,2017-03-05T22:30:00Z,30.6671,-87.9365,19.33,1111122 
DISL,ioos:station:DISL:MHPA:1,2017-03-05T23:00:00Z,30.6671,-87.9365,19.13,1111122 
DISL,ioos:station:DISL:MHPA:1,2017-03-05T23:30:00Z,30.6671,-87.9365,18.87,1111122 
DISL,ioos:station:DISL:MHPA:1,2017-03-06T00:00:00Z,30.6671,-87.9365,18.66,1111122 
DISL,ioos:station:DISL:MHPA:1,2017-03-06T00:30:00Z,30.6671,-87.9365,18.46,1111122 
DISL,ioos:station:DISL:MHPA:1,2017-03-06T01:00:00Z,30.6671,-87.9365,18.43,1111122 
DISL,ioos:station:DISL:MHPA:1,2017-03-06T01:30:00Z,30.6671,-87.9365,18.26,1111122 
DISL,ioos:station:DISL:MHPA:1,2017-03-06T02:00:00Z,30.6671,-87.9365,18.22,1111122 
DISL,ioos:station:DISL:MHPA:1,2017-03-06T02:30:00Z,30.6671,-87.9365,18.33,1111122 
DISL,ioos:station:DISL:MHPA:1,2017-03-06T03:00:00Z,30.6671,-87.9365,18.36,1111122 
DISL,ioos:station:DISL:MHPA:1,2017-03-06T03:30:00Z,30.6671,-87.9365,18.37,1111122 
DISL,ioos:station:DISL:MHPA:1,2017-03-06T04:00:00Z,30.6671,-87.9365,18.57,1111122 
DISL,ioos:station:DISL:MHPA:1,2017-03-06T04:30:00Z,30.6671,-87.9365,18.46,1111122 
DISL,ioos:station:DISL:MHPA:1,2017-03-06T05:00:00Z,30.6671,-87.9365,18.46,1111122 
DISL,ioos:station:DISL:MHPA:1,2017-03-06T05:30:00Z,30.6671,-87.9365,18.4,1111122 
DISL,ioos:station:DISL:MHPA:1,2017-03-06T06:00:00Z,30.6671,-87.9365,18.37,1111122 
DISL,ioos:station:DISL:MHPA:1,2017-03-06T06:30:00Z,30.6671,-87.9365,18.23,1111122 
DISL,ioos:station:DISL:MHPA:1,2017-03-06T07:00:00Z,30.6671,-87.9365,17.96,1111122 
DISL,ioos:station:DISL:MHPA:1,2017-03-06T07:30:00Z,30.6671,-87.9365,17.63,1111122 
DISL,ioos:station:DISL:MHPA:1,2017-03-06T08:00:00Z,30.6671,-87.9365,17.49,1111122 
DISL,ioos:station:DISL:MHPA:1,2017-03-06T08:30:00Z,30.6671,-87.9365,17.16,1111122 
DISL,ioos:station:DISL:MHPA:1,2017-03-06T09:00:00Z,30.6671,-87.9365,16.82,1111122 
DISL,ioos:station:DISL:MHPA:1,2017-03-06T09:30:00Z,30.6671,-87.9365,16.62,1111122 
DISL,ioos:station:DISL:MHPA:1,2017-03-06T10:00:00Z,30.6671,-87.9365,16.59,1111122 
DISL,ioos:station:DISL:MHPA:1,2017-03-06T10:30:00Z,30.6671,-87.9365,16.72,1111122 
DISL,ioos:station:DISL:MHPA:1,2017-03-06T11:00:00Z,30.6671,-87.9365,16.82,1111122 
DISL,ioos:station:DISL:MHPA:1,2017-03-06T11:30:00Z,30.6671,-87.9365,17.03,1111122 
DISL,ioos:station:DISL:MHPA:1,2017-03-06T12:00:00Z,30.6671,-87.9365,17.57,1111122 
DISL,ioos:station:DISL:MHPA:1,2017-03-06T12:30:00Z,30.6671,-87.9365,17.94,1111122 
DISL,ioos:station:DISL:MHPA:1,2017-03-06T13:00:00Z,30.6671,-87.9365,18.28,1111122 
DISL,ioos:station:DISL:MHPA:1,2017-03-06T13:30:00Z,30.6671,-87.9365,18.74,1111122 
DISL,ioos:station:DISL:MHPA:1,2017-03-06T14:00:00Z,30.6671,-87.9365,19.74,1111122 
DISL,ioos:station:DISL:MHPA:1,2017-03-06T14:30:00Z,30.6671,-87.9365,20.44,1111122 
DISL,ioos:station:DISL:MHPA:1,2017-03-06T15:00:00Z,30.6671,-87.9365,20.74,1111122 
DISL,ioos:station:DISL:MHPA:1,2017-03-06T15:30:00Z,30.6671,-87.9365,20.84,1111122 
DISL,ioos:station:DISL:MHPA:1,2017-03-06T16:00:00Z,30.6671,-87.9365,21.28,1111122 
DISL,ioos:station:DISL:MHPA:1,2017-03-06T16:30:00Z,30.6671,-87.9365,21.24,1111122 
DISL,ioos:station:DISL:MHPA:1,2017-03-06T17:00:00Z,30.6671,-87.9365,21.44,1111122 
DISL,ioos:station:DISL:MHPA:1,2017-03-06T17:30:00Z,30.6671,-87.9365,21.54,1111122 
DISL,ioos:station:DISL:MHPA:1,2017-03-06T18:00:00Z,30.6671,-87.9365,21.6,1111122 
DISL,ioos:station:DISL:MHPA:1,2017-03-06T18:30:00Z,30.6671,-87.9365,21.94,1111122 
DISL,ioos:station:DISL:MHPA:1,2017-03-06T19:00:00Z,30.6671,-87.9365,21.74,1111122 
DISL,ioos:station:DISL:MHPA:1,2017-03-06T19:30:00Z,30.6671,-87.9365,21.58,1111122 
DISL,ioos:station:DISL:MHPA:1,2017-03-06T20:00:00Z,30.6671,-87.9365,21.61,1111122 
DISL,ioos:station:DISL:MHPA:1,2017-03-06T20:30:00Z,30.6671,-87.9365,21.55,1111122 
DISL,ioos:station:DISL:MHPA:1,2017-03-06T21:00:00Z,30.6671,-87.9365,21.51,1111122 
DISL,ioos:station:DISL:MHPA:1,2017-03-06T21:30:00Z,30.6671,-87.9365,21.43,1111122 
DISL,ioos:station:DISL:MHPA:1,2017-03-06T22:00:00Z,30.6671,-87.9365,20.96,1111122 
DISL,ioos:station:DISL:MHPA:1,2017-03-06T22:30:00Z,30.6671,-87.9365,21.03,1111122 
DISL,ioos:station:DISL:MHPA:1,2017-03-06T23:00:00Z,30.6671,-87.9365,20.7,1111122 
DISL,ioos:station:DISL:MHPA:1,2017-03-06T23:30:00Z,30.6671,-87.9365,20.57,1111122 
DISL,ioos:station:DISL:MHPA:1,2017-03-07T00:00:00Z,30.6671,-87.9365,20.16,1111122 